{"data":{"norad_id":58603,"intl_designator":"2023-200Q","name":"STARLINK-31080","alt_names":[],"object_type":"PAYLOAD","status":"ACTIVE","operator":null,"country":"US","launch_date":"2023-12-19","launch_site_code":"AFETR","launch_vehicle":null,"mission":null,"orbit_class":"UNKNOWN","rcs_meters":null,"size_class":null,"mass_kg":null,"dimensions":null,"purposes":["comms"],"wikipedia_slug":null,"has_3d_model":false,"image_url":null,"decayed_at":null,"tle_current":{"epoch":"2026-09-20T02:07:52.780512Z","epoch_age_seconds":185445,"freshness":"STALE","line1":"1 58603U 23200Q   26263.08880533  .00001054  00000+0  47833-4 0  9991","line2":"2 58603  43.0041 150.8145 0001142 272.3789  87.6931 15.27578040153154","mean_motion":15.2757804,"eccentricity":0.0001142,"inclination_deg":43.0041,"raan_deg":150.8145,"arg_perigee_deg":272.3789,"mean_anomaly_deg":87.6931,"bstar":4.7833e-5,"rev_number":15315,"period_min":94.266869665133,"perigee_km":482.27141686863,"apogee_km":483.83851311344,"semimajor_km":6861.191964991,"source":"CELESTRAK","updated_at":"2026-09-21T09:00:33.919626Z"}}}